User: anonymous   Login
Location: Albany
(35.0000°S, 118.0000°E)
Time: 19:16:11
(UTC-04:00)
Language:

Cosmos 1933 - Orbit

View from above orbital plane
View from above orbital plane
View from above satellite
View from above satellite

Ground track
Ground track

The orbit data is extracted from the following two-line orbital elements,

1 18958U 88020A   17115.68489998 +.00000296 +00000-0 +19739-4 0  9995
2 18958 082.5287 154.5146 0013400 100.3735 259.9002 15.03205300562478
Epoch (UTC): 25 April 2017 16:26:15
Eccentricity: 0.0013400
inclination: 82.5287°
perigee height: 548 km
apogee height: 566 km
right ascension of ascending node: 154.5146°
argument of perigee: 100.3735°
revolutions per day: 15.03205300
mean anomaly at epoch: 259.9002°
orbit number at epoch: 56247

The dashed part of the orbit path shows where the satellite is in the earth's shadow,  

DLR